Showing default

GAOFEN 3 03, 52200

Orbit data source: Space-Track

GAOFEN 3 03, 52200 is a payload satellite owned by GWHYZ (CN) in SSO that was launched on Wed, 06 Apr 2022 UTC via a CHANG ZHENG 4C launch vehicle from the Jiuquan Satellite Launch Center, China (JSC). Payload-class satellites include a variety of spacecraft equipped with specific instruments for various scientific and technological missions. These include communications satellites like Starlink; space stations such as the ISS; scientific satellites like the Hubble; Earth observation satellites from companies like Planet Labs, Umbra, and HawkEye 360; GPS; miniature CubeSats for education and research; and military/defense satellites.

Loading next visibility...
Identifier
52200, 2022-035A
Orbit
SSO
Country
Flag of CNCN / PRC
Related business
Manufacturer
CAST
Mission
Operational Civil Radar Imaging
Bus & Motor
CS-L3000B, Unknown motor
Mass
~2,779 kg wet, ~2,500 kg dry
Launch date (UTC)
2022-04-06 (4 years ago)
Launch vehicle
CHANG ZHENG 4C
Launch site
Jiuquan Satellite Launch Center, China (JSC)
Object type
Payload
Rocket body
Debris
Shape & HBR
Box + 3 Pan, 4.0 m
Radar Cross Section
10.846 m², Large (>1 m²)

Expand to show TLE details & history
Last TLE update: 23 hours ago

TLE from 23 hours ago
0 GAOFEN 3 03
1 52200U 22035A   26172.53111140  .00000128  00000-0  51914-4 0  9990
2 52200  98.4063 181.0490 0001394 100.8391 259.2956 14.42215888221470
Epoch: 2026-06-21T12:44Z
TLE epoch observation values (Epoch: 2026-06-21T12:44:48.024Z)
Latitude
-0.00001°
Longitude
80.11885°
Altitude
754.326 km
Speed
7.477 km/s
True Right ascension
12h 04m 11s
True Declination
0° 00' 00"
Sunlit
Object was in daylight at epoch
Visualization orbit readout
Latitude
Unknown
Longitude
Unknown
Altitude
Unknown
Speed
Unknown
Apparent Right ascension
Unknown
Apparent Declination
Unknown
Sunlit
N/A
Visualization observer readout
Local Sidereal Time
23:08:17
Azimuth
Unknown
Elevation
Unknown
Doppler factor
Unknown
Orbital elements
Apogee altitude
749.294 km
Perigee altitude
747.308 km
Semi-major axis
7,126.438 km
Eccentricity
0.00014
Inclination
98.4063°
RAAN
181.049°
Arg. of periapsis
100.8391°
True anomaly
259.2799°
Mean anomaly
259.2956°
Eccentric anomaly
259.28775°
Mean motion
3.60773 °/min
Orbital period
99.79 mins
BSTAR
0.000051914
Loading maneuver chart data...
Computing Atmospheric mass density...
Loading historical data...
Loading historical data...
Loading historical data...
Loading historical data...
Loading historical data...
Loading historical data...
Loading historical data...
Other satellites on launch #35 in the year 2022 (2022-04-06 UTC)

Documentation

Showing up to 5 results
|